This demonstration page uses our WeatherBlox Daily Observations layout. Learn more.

Left ArrowRight Arrow

38.80484, -77.04692

Hourly Observations for January 31, 2022

Temp ( °F °C ) Dew Point ( °F °C ) Humidity (%) Winds ( mph kmh ) Pressure ( in mb ) Visibility ( mi km ) Precip ( " mm )
12:52 am 00:52 Cloudy 29 -1.7 16 -8.9 58 58 ENE 7 11 30.16 1021 10 16 0.00 0.00
1:52 am 01:52 Mostly Clear 26 -3.3 16 -8.9 66 66 NE 6 9 30.16 1021 10 16 0.00 0.00
2:52 am 02:52 Partly Cloudy 26 -3.3 15 -9.4 63 63 NNE 6 9 30.18 1022 10 16 0.00 0.00
3:52 am 03:52 Partly Cloudy 25 -3.9 15 -9.4 66 66 NNE 7 11 30.18 1022 10 16 0.00 0.00
4:52 am 04:52 Partly Cloudy 25 -3.9 14 -10 63 63 NE 6 9 30.19 1022 10 16 0.00 0.00
5:52 am 05:52 Partly Cloudy 25 -3.9 15 -9.4 66 66 NE 9 15 30.21 1023 10 16 0.00 0.00
6:52 am 06:52 Cloudy 25 -3.9 14 -10 63 63 NE 7 11 30.24 1024 10 16 0.00 0.00
7:52 am 07:52 Cloudy 25 -3.9 15 -9.4 66 66 NE 8 13 30.27 1025 10 16 0.00 0.00
8:52 am 08:52 Cloudy 27 -2.8 17 -8.3 66 66 NE 8 13 30.30 1026 10 16 0.00 0.00
9:52 am 09:52 Cloudy 30 -1.1 17 -8.3 58 58 NE 9 15 30.31 1027 10 16 0.00 0.00
10:52 am 10:52 Cloudy 33 0.6 17 -8.3 52 52 NE 8 13 30.33 1027 10 16 0.00 0.00
11:52 am 11:52 Cloudy 36 2.2 17 -8.3 46 46 NNE 7 11 30.32 1027 10 16 0.00 0.00
12:52 pm 12:52 Cloudy 37 2.8 18 -7.8 46 46 NE 9 15 30.31 1026 10 16 0.00 0.00
1:52 pm 13:52 Cloudy 38 3.3 18 -7.8 44 44 NNE 7 11 30.29 1026 10 16 0.00 0.00
2:52 pm 14:52 Mostly Cloudy 39 3.9 19 -7.2 45 45 NE 10 17 30.29 1026 10 16 0.00 0.00
3:52 pm 15:52 Mostly Cloudy 38 3.3 19 -7.2 46 46 NE 9 15 30.29 1026 10 16 0.00 0.00
4:52 pm 16:52 Partly Cloudy 35 1.7 20 -6.7 54 54 NE 10 17 30.31 1026 10 16 0.00 0.00
5:52 pm 17:52 Partly Cloudy 33 0.6 19 -7.2 56 56 NE 10 17 30.33 1027 10 16 0.00 0.00
6:52 pm 18:52 Mostly Clear 32 0 16 -8.9 52 52 NE 9 15 30.36 1028 10 16 0.00 0.00
7:52 pm 19:52 Mostly Clear 30 -1.1 15 -9.4 54 54 NE 8 13 30.38 1029 10 16 0.00 0.00
8:52 pm 20:52 Partly Cloudy 30 -1.1 15 -9.4 54 54 NE 5 7 30.41 1030 10 16 0.00 0.00
9:52 pm 21:52 Partly Cloudy 30 -1.1 17 -8.3 58 58 NE 5 7 30.42 1030 10 16 0.00 0.00
10:52 pm 22:52 Partly Cloudy 29 -1.7 17 -8.3 61 61 NE 5 7 30.43 1031 10 16 0.00 0.00
11:52 pm 23:52 Partly Cloudy 28 -2.2 17 -8.3 63 63 NE 5 7 30.44 1031 10 16 0.00 0.00

Powered by AerisWeather